Weather History for Rolla, MO

Change the Weather History Date:

Sunday, March 17, 2013

  Actual Average Record
Temperature  
Mean Temperature 34 °F 46 °F  
Max Temperature 36 °F 57 °F 79 °F (1903)
Min Temperature 31 °F 35 °F 8 °F (1900)
Degree Days  
Heating Degree Days 31 19  
Month to date heating degree days 449 377  
Since 1 July heating degree days 4035 4167  
Cooling Degree Days 0 0  
Month to date cooling degree days 0 0  
Year to date cooling degree days 0 0  
Moisture  
Dew Point 32 °F    
Average Humidity 93    
Maximum Humidity 100    
Minimum Humidity 85    
Precipitation  
Precipitation 1.16 in 0.12 in 1.97 in (2012)
Month to date precipitation 2.82 1.63  
Year to date precipitation 7.53 5.73  
Sea Level Pressure  
Sea Level Pressure 29.92 in    
Wind  
Wind Speed 13 mph (ENE)    
Max Wind Speed 25 mph    
Max Gust Speed 31 mph    
Visibility 5 miles    
Events Rain , Snow , Thunderstorm    
T = Trace of Precipitation, MM = Missing Value Source: NWS Daily Summary

Daily Weather History Graph

Daily Weather History Graph

Search for Another Location

Airport:

Trip Planner

Search our weather history database for the weather conditions in past years. The results will help you decide how hot, cold, wet, or windy it might be!

Date:

Astronomy

Mar. 17, 2013 Rise Set
Actual Time 7:14 AM CDT 7:16 PM CDT
Civil Twilight 6:48 AM CDT 7:42 PM CDT
Nautical Twilight 6:17 AM CDT 8:13 PM CDT
Astronomical Twilight 5:46 AM CDT 8:44 PM CDT
Moon 10:32 AM CDT (3/17) 12:19 AM CDT (3/17)
Length of Visible Light 12h 54m
Length of Day
12h 01m
Waxing Crescent, 31% of the Moon is Illuminated
Mar 17
Waxing Crescent
Mar 19
First Quarter
Mar 27
Full
Apr 2
Last Quarter
Apr 10
New

Hourly Weather History & Observations

Time (CDT) Temp. Windchill Dew Point Humidity Pressure Visibility Wind Dir Wind Speed Gust Speed Precip Events Conditions
12:23 AM 37.4 °F 29.8 °F 35.6 °F 93% 29.98 in 3.0 mi NE 11.5 mph - 0.04 in Rain Rain
12:30 AM 37.4 °F 28.5 °F 33.8 °F 87% 29.97 in 2.5 mi NE 15.0 mph - 0.06 in Rain Rain
12:44 AM 35.6 °F 26.6 °F 33.8 °F 93% 29.97 in 3.0 mi NE 13.8 mph - 0.09 in Rain Rain
12:53 AM 36.0 °F 28.5 °F 35.1 °F 97% 29.99 in 3.0 mi NNE 10.4 mph - 0.09 in Rain Light Rain
1:53 AM 36.0 °F 27.5 °F 34.0 °F 93% 30.01 in 4.0 mi NNE 12.7 mph - 0.03 in Rain Light Rain
2:26 AM 35.6 °F 25.9 °F 33.8 °F 93% 30.00 in 2.5 mi NE 16.1 mph 23.0 mph 0.06 in Rain Rain
2:32 AM 35.6 °F 25.2 °F 33.8 °F 93% 29.99 in 3.0 mi NE 18.4 mph 24.2 mph 0.07 in Rain Light Rain
2:53 AM 35.1 °F 24.8 °F 33.1 °F 92% 30.01 in 5.0 mi NNE 17.3 mph - 0.10 in Rain Light Rain
3:17 AM 35.6 °F 25.9 °F 32.0 °F 87% 29.98 in 8.0 mi ENE 16.1 mph 24.2 mph 0.02 in   Overcast
3:49 AM 35.6 °F 25.9 °F 32.0 °F 87% 29.97 in 8.0 mi NE 16.1 mph - 0.04 in Rain Light Rain
3:53 AM 35.1 °F 25.2 °F 32.0 °F 89% 29.99 in 8.0 mi ENE 16.1 mph - 0.04 in   Overcast
4:02 AM 35.6 °F 25.5 °F 32.0 °F 87% 29.98 in 8.0 mi ENE 17.3 mph - 0.00 in   Overcast
4:46 AM 33.8 °F 24.8 °F 32.0 °F 93% 29.99 in 10.0 mi NE 12.7 mph 23.0 mph 0.01 in   Overcast
4:53 AM 34.0 °F 25.5 °F 32.0 °F 92% 30.01 in 10.0 mi NE 11.5 mph - 0.01 in   Overcast
5:03 AM 33.8 °F 24.8 °F 32.0 °F 93% 29.99 in 8.0 mi NNE 12.7 mph - 0.00 in Rain Light Rain
5:53 AM 34.0 °F 24.2 °F 32.0 °F 92% 30.01 in 7.0 mi NE 15.0 mph - 0.05 in Rain Light Rain
6:34 AM 33.8 °F 22.2 °F 30.2 °F 87% 29.99 in 4.0 mi ENE 20.7 mph 26.5 mph 0.03 in Snow Light Snow
6:41 AM 32.0 °F 20.8 °F 28.4 °F 87% 29.99 in 2.5 mi ENE 17.3 mph 28.8 mph 0.04 in Snow Light Snow
6:49 AM 32.0 °F 20.1 °F 30.2 °F 93% 29.99 in 5.0 mi ENE 19.6 mph 28.8 mph 0.05 in   Overcast
6:53 AM 32.0 °F 19.5 °F 30.0 °F 92% 30.02 in 6.0 mi NE 21.9 mph 28.8 mph 0.05 in Rain Light Freezing Rain
7:09 AM 32.0 °F 20.1 °F 28.4 °F 87% 30.00 in 7.0 mi ENE 19.6 mph 26.5 mph 0.01 in Rain Light Freezing Rain
7:20 AM 32.0 °F 20.8 °F 28.4 °F 87% 30.01 in 5.0 mi ENE 17.3 mph 25.3 mph 0.03 in Rain Light Freezing Rain
7:31 AM 32.0 °F 23.0 °F 30.2 °F 93% 30.01 in 5.0 mi ENE 11.5 mph - 0.04 in Rain Light Freezing Rain
7:53 AM 32.0 °F 22.1 °F 30.0 °F 92% 30.04 in 5.0 mi ENE 13.8 mph - 0.07 in Rain Light Freezing Rain
8:12 AM 32.0 °F 21.6 °F 30.2 °F 93% 30.02 in 4.0 mi NE 15.0 mph - 0.02 in   Overcast
8:41 AM 32.0 °F 21.2 °F 28.4 °F 87% 30.00 in 3.0 mi ENE 16.1 mph 24.2 mph 0.05 in Rain Light Freezing Rain
8:51 AM 32.0 °F 22.1 °F 28.4 °F 87% 30.00 in 4.0 mi ENE 13.8 mph - 0.06 in Rain Light Freezing Rain
8:53 AM 32.0 °F 20.8 °F 28.9 °F 88% 30.02 in 4.0 mi ENE 17.3 mph 24.2 mph 0.06 in Rain Light Freezing Rain
9:20 AM 32.0 °F 23.0 °F 30.2 °F 93% 30.01 in 4.0 mi East 11.5 mph - 0.02 in Rain Light Freezing Rain
9:53 AM 32.0 °F 21.6 °F 30.0 °F 92% 30.01 in 6.0 mi East 15.0 mph 21.9 mph 0.02 in Rain Light Freezing Rain
10:53 AM 32.0 °F 23.6 °F 30.0 °F 92% 30.01 in 10.0 mi East 10.4 mph - 0.00 in   Overcast
11:53 AM 32.0 °F 21.6 °F 30.0 °F 92% 29.98 in 7.0 mi East 15.0 mph - N/A   Overcast
12:53 PM 32.0 °F 22.5 °F 30.9 °F 96% 29.97 in 5.0 mi ENE 12.7 mph - 0.00 in   Overcast
1:53 PM 32.0 °F 23.6 °F 30.9 °F 96% 29.96 in 4.0 mi East 10.4 mph - 0.02 in   Overcast
2:25 PM 33.8 °F 23.5 °F 30.2 °F 87% 29.88 in 2.5 mi ENE 16.1 mph - 0.03 in Rain Light Rain
2:32 PM 33.8 °F 24.8 °F 30.2 °F 87% 29.87 in 4.0 mi ENE 12.7 mph - 0.03 in Rain Light Rain
2:45 PM 33.8 °F 23.5 °F 30.2 °F 87% 29.88 in 6.0 mi East 16.1 mph 19.6 mph 0.03 in   Overcast
2:53 PM 33.8 °F 24.3 °F 30.2 °F 87% 29.88 in 8.0 mi ENE 13.8 mph 20.7 mph N/A   Overcast
3:53 PM 33.1 °F 24.9 °F 32.0 °F 96% 29.87 in 8.0 mi ENE 10.4 mph - N/A   Overcast
4:16 PM 33.8 °F 23.9 °F 30.2 °F 87% 29.82 in 5.0 mi ENE 15.0 mph - N/A   Overcast
4:29 PM 33.8 °F 26.4 °F 32.0 °F 93% 29.86 in 5.0 mi NE 9.2 mph - 0.00 in Rain , Thunderstorm Light Thunderstorms and Rain
4:44 PM 33.8 °F 28.6 °F 32.0 °F 93% 29.87 in 1.8 mi ENE 5.8 mph - 0.06 in Rain , Thunderstorm Heavy Rain
4:53 PM 33.1 °F 26.1 °F 32.0 °F 96% 29.88 in 1.8 mi NE 8.1 mph - 0.09 in Rain , Thunderstorm Rain
4:56 PM 33.8 °F 24.3 °F 32.0 °F 93% 29.83 in 2.0 mi NE 13.8 mph - 0.01 in Rain , Thunderstorm Thunderstorms and Rain
5:12 PM 33.8 °F 24.3 °F 32.0 °F 93% 29.82 in 3.0 mi ENE 13.8 mph 23.0 mph 0.04 in Rain Light Rain
5:31 PM 33.8 °F 23.5 °F 32.0 °F 93% 29.79 in 4.0 mi ENE 16.1 mph 19.6 mph 0.06 in Rain , Thunderstorm Rain
5:43 PM 33.8 °F 22.2 °F 32.0 °F 93% 29.78 in 2.5 mi East 20.7 mph 26.5 mph 0.07 in Rain Rain
5:53 PM 34.0 °F 21.5 °F 32.0 °F 92% 29.78 in 2.5 mi East 24.2 mph 29.9 mph 0.10 in Rain , Thunderstorm Rain
6:04 PM 33.8 °F 23.9 °F 32.0 °F 93% 29.80 in 4.0 mi East 15.0 mph 31.1 mph 0.01 in Rain , Thunderstorm Rain
6:30 PM 33.8 °F 25.8 °F 33.8 °F 100% 29.82 in 2.5 mi ENE 10.4 mph - 0.15 in Rain , Thunderstorm Heavy Thunderstorms and Rain
6:39 PM 33.8 °F 24.3 °F 32.0 °F 93% 29.79 in 3.0 mi ENE 13.8 mph - 0.19 in Rain , Thunderstorm Heavy Thunderstorms and Rain
6:53 PM 34.0 °F 26.0 °F 32.0 °F 92% 29.81 in 3.0 mi East 10.4 mph 21.9 mph 0.24 in Rain , Thunderstorm Heavy Rain
7:19 PM 33.8 °F 24.8 °F 32.0 °F 93% 29.77 in 5.0 mi East 12.7 mph 24.2 mph 0.06 in Rain , Thunderstorm Light Rain
7:53 PM 34.0 °F 24.6 °F 32.0 °F 92% 29.75 in 4.0 mi East 13.8 mph 26.5 mph 0.14 in Rain Rain
8:53 PM 35.1 °F 27.4 °F 33.1 °F 92% 29.79 in 6.0 mi East 10.4 mph 19.6 mph 0.06 in Rain Light Rain
9:40 PM 35.6 °F 28.0 °F 33.8 °F 93% 29.74 in 9.0 mi East 10.4 mph - 0.03 in Rain , Thunderstorm Light Rain
9:53 PM 35.1 °F 30.1 °F 34.0 °F 96% 29.78 in 10.0 mi East 5.8 mph - 0.03 in Rain Light Rain
10:53 PM 35.1 °F 28.6 °F 34.0 °F 96% 29.76 in 7.0 mi ENE 8.1 mph - 0.01 in   Overcast
11:53 PM 35.1 °F 27.9 °F 34.0 °F 96% 29.74 in 10.0 mi ENE 9.2 mph - 0.01 in   Overcast